User: anonymous   Login
Location: Roc des P�zouls
(43.9667°N, 3.5500°E)
Time: 20:09:04
(UTC+00:00)
Language:

SKYMED 2 - Orbit

View from above orbital plane
View from above orbital plane
View from above satellite
View from above satellite

Ground track
Ground track

The orbit data is extracted from the following two-line orbital elements,

1 32376U 07059A   20020.51585017 -.00000288  00000-0 -29646-4 0  9999
2 32376  97.8841 205.8306 0001455  88.1534 271.9858 14.82151894655513
Epoch (UTC): 20 January 2020 12:22:49
Eccentricity: 0.0001455
inclination: 97.8841°
perigee height: 621 km
apogee height: 623 km
right ascension of ascending node: 205.8306°
argument of perigee: 88.1534°
revolutions per day: 14.82151894
mean anomaly at epoch: 271.9858°
orbit number at epoch: 65551

The dashed part of the orbit path shows where the satellite is in the earth's shadow,  

DLR